Time,TemperatureF,DewpointF,PressureIn,WindDirection,WindDirectionDegrees,WindSpeedMPH,WindSpeedGustMPH,Humidity,HourlyPrecipIn,Conditions,Clouds,dailyrainin,SoftwareType,DateUTC
2013-06-30 00:00:00,77.6,45.4,29.86,East,90,8.0,17.0,32,0.00,,,0.00,WeatherCatV1.02B3,2013-06-30 04:00:00,
2013-06-30 00:05:00,77.3,45.1,29.86,ESE,112,6.0,15.0,32,0.00,,,0.00,WeatherCatV1.02B3,2013-06-30 04:05:00,
2013-06-30 00:10:00,77.3,45.1,29.86,ESE,112,6.0,15.0,32,0.00,,,0.00,WeatherCatV1.02B3,2013-06-30 04:10:00,
2013-06-30 00:15:00,77.3,45.1,29.86,ESE,112,6.0,15.0,32,0.00,,,0.00,WeatherCatV1.02B3,2013-06-30 04:15:00,
2013-06-30 00:20:00,77.3,45.1,29.86,ESE,112,6.0,15.0,32,0.00,,,0.00,WeatherCatV1.02B3,2013-06-30 04:20:00,
2013-06-30 00:25:00,77.3,45.1,29.86,ESE,112,6.0,15.0,32,0.00,,,0.00,WeatherCatV1.02B3,2013-06-30 04:25:00,
2013-06-30 00:30:00,77.3,45.1,29.86,ESE,112,6.0,15.0,32,0.00,,,0.00,WeatherCatV1.02B3,2013-06-30 04:30:00,
2013-06-30 00:35:00,76.9,44.8,29.85,East,90,7.0,16.0,32,0.00,,,0.00,WeatherCatV1.02B3,2013-06-30 04:35:00,
2013-06-30 00:40:00,76.9,44.8,29.85,East,90,7.0,16.0,32,0.00,,,0.00,WeatherCatV1.02B3,2013-06-30 04:40:00,
2013-06-30 00:45:00,76.9,44.8,29.85,East,90,7.0,16.0,32,0.00,,,0.00,WeatherCatV1.02B3,2013-06-30 04:45:00,
2013-06-30 00:50:00,76.9,44.8,29.85,East,90,7.0,16.0,32,0.00,,,0.00,WeatherCatV1.02B3,2013-06-30 04:50:00,
2013-06-30 00:55:00,76.9,44.8,29.85,East,90,7.0,16.0,32,0.00,,,0.00,WeatherCatV1.02B3,2013-06-30 04:55:00,
2013-06-30 01:00:00,76.7,44.6,29.85,East,90,5.0,12.0,32,0.00,,,0.00,WeatherCatV1.02B3,2013-06-30 05:00:00,
2013-06-30 01:05:00,76.7,44.6,29.85,East,90,5.0,12.0,32,0.00,,,0.00,WeatherCatV1.02B3,2013-06-30 05:05:00,
2013-06-30 01:10:00,76.7,44.6,29.85,East,90,5.0,12.0,32,0.00,,,0.00,WeatherCatV1.02B3,2013-06-30 05:10:00,
2013-06-30 01:15:00,76.7,44.6,29.85,East,90,5.0,12.0,32,0.00,,,0.00,WeatherCatV1.02B3,2013-06-30 05:15:00,
2013-06-30 01:20:00,76.7,44.6,29.85,East,90,5.0,12.0,32,0.00,,,0.00,WeatherCatV1.02B3,2013-06-30 05:20:00,
2013-06-30 01:25:00,76.7,44.6,29.85,East,90,5.0,12.0,32,0.00,,,0.00,WeatherCatV1.02B3,2013-06-30 05:25:00,
2013-06-30 01:30:00,76.7,44.6,29.85,East,90,5.0,12.0,32,0.00,,,0.00,WeatherCatV1.02B3,2013-06-30 05:30:00,
2013-06-30 01:35:00,76.5,44.4,29.85,ESE,112,6.0,14.0,32,0.00,,,0.00,WeatherCatV1.02B3,2013-06-30 05:35:00,
2013-06-30 01:40:00,76.5,44.4,29.85,ESE,112,6.0,14.0,32,0.00,,,0.00,WeatherCatV1.02B3,2013-06-30 05:40:00,
2013-06-30 01:45:00,76.5,44.4,29.85,ESE,112,6.0,14.0,32,0.00,,,0.00,WeatherCatV1.02B3,2013-06-30 05:45:00,
2013-06-30 01:50:00,76.5,44.4,29.85,ESE,112,6.0,14.0,32,0.00,,,0.00,WeatherCatV1.02B3,2013-06-30 05:50:00,
2013-06-30 01:55:00,76.5,44.4,29.85,ESE,112,6.0,14.0,32,0.00,,,0.00,WeatherCatV1.02B3,2013-06-30 05:55:00,
2013-06-30 02:00:00,76.5,44.4,29.85,ESE,112,6.0,14.0,32,0.00,,,0.00,WeatherCatV1.02B3,2013-06-30 06:00:00,
2013-06-30 02:05:00,76.4,43.5,29.84,ESE,112,7.0,15.0,31,0.00,,,0.00,WeatherCatV1.02B3,2013-06-30 06:05:00,
2013-06-30 02:10:00,76.4,43.5,29.84,ESE,112,7.0,15.0,31,0.00,,,0.00,WeatherCatV1.02B3,2013-06-30 06:10:00,
2013-06-30 02:15:00,76.4,43.5,29.84,ESE,112,7.0,15.0,31,0.00,,,0.00,WeatherCatV1.02B3,2013-06-30 06:15:00,
2013-06-30 02:20:00,76.4,43.5,29.84,ESE,112,7.0,15.0,31,0.00,,,0.00,WeatherCatV1.02B3,2013-06-30 06:20:00,
2013-06-30 02:25:00,76.4,43.5,29.84,ESE,112,7.0,15.0,31,0.00,,,0.00,WeatherCatV1.02B3,2013-06-30 06:25:00,
2013-06-30 02:30:00,76.3,43.4,29.84,ESE,112,6.0,14.0,31,0.00,,,0.00,WeatherCatV1.02B3,2013-06-30 06:30:00,
2013-06-30 02:35:00,76.3,43.4,29.84,ESE,112,6.0,14.0,31,0.00,,,0.00,WeatherCatV1.02B3,2013-06-30 06:35:00,
2013-06-30 02:40:00,76.3,43.4,29.84,ESE,112,6.0,14.0,31,0.00,,,0.00,WeatherCatV1.02B3,2013-06-30 06:40:00,
2013-06-30 02:45:00,76.3,43.4,29.84,ESE,112,6.0,14.0,31,0.00,,,0.00,WeatherCatV1.02B3,2013-06-30 06:45:00,
2013-06-30 02:50:00,76.3,43.4,29.84,ESE,112,6.0,14.0,31,0.00,,,0.00,WeatherCatV1.02B3,2013-06-30 06:50:00,
2013-06-30 02:55:00,76.3,43.4,29.84,ESE,112,6.0,14.0,31,0.00,,,0.00,WeatherCatV1.02B3,2013-06-30 06:55:00,
2013-06-30 03:00:00,76.1,43.2,29.83,East,90,5.0,13.0,31,0.00,,,0.00,WeatherCatV1.02B3,2013-06-30 07:00:00,
2013-06-30 03:05:00,76.1,43.2,29.83,East,90,5.0,13.0,31,0.00,,,0.00,WeatherCatV1.02B3,2013-06-30 07:05:00,
2013-06-30 03:10:00,76.1,43.2,29.83,East,90,5.0,13.0,31,0.00,,,0.00,WeatherCatV1.02B3,2013-06-30 07:10:00,
2013-06-30 03:15:00,76.1,43.2,29.83,East,90,5.0,13.0,31,0.00,,,0.00,WeatherCatV1.02B3,2013-06-30 07:15:00,
2013-06-30 03:20:00,76.1,43.2,29.83,East,90,5.0,13.0,31,0.00,,,0.00,WeatherCatV1.02B3,2013-06-30 07:20:00,
2013-06-30 03:25:00,76.1,43.2,29.83,East,90,5.0,13.0,31,0.00,,,0.00,WeatherCatV1.02B3,2013-06-30 07:25:00,
2013-06-30 03:30:00,76.1,43.2,29.83,East,90,5.0,13.0,31,0.00,,,0.00,WeatherCatV1.02B3,2013-06-30 07:30:00,
2013-06-30 03:35:00,76.0,43.2,29.83,ESE,112,6.0,14.0,31,0.00,,,0.00,WeatherCatV1.02B3,2013-06-30 07:35:00,
2013-06-30 03:40:00,76.0,43.2,29.83,ESE,112,6.0,14.0,31,0.00,,,0.00,WeatherCatV1.02B3,2013-06-30 07:40:00,
2013-06-30 03:45:00,76.0,43.2,29.83,ESE,112,6.0,14.0,31,0.00,,,0.00,WeatherCatV1.02B3,2013-06-30 07:45:00,
2013-06-30 03:50:00,76.0,43.2,29.83,ESE,112,6.0,14.0,31,0.00,,,0.00,WeatherCatV1.02B3,2013-06-30 07:50:00,
2013-06-30 03:55:00,76.0,43.2,29.83,ESE,112,6.0,14.0,31,0.00,,,0.00,WeatherCatV1.02B3,2013-06-30 07:55:00,
2013-06-30 04:00:00,76.0,43.2,29.83,ESE,112,6.0,14.0,31,0.00,,,0.00,WeatherCatV1.02B3,2013-06-30 08:00:00,
2013-06-30 04:05:00,75.8,43.8,29.83,ESE,112,5.0,12.0,32,0.00,,,0.00,WeatherCatV1.02B3,2013-06-30 08:05:00,
2013-06-30 04:10:00,75.8,43.8,29.83,ESE,112,5.0,12.0,32,0.00,,,0.00,WeatherCatV1.02B3,2013-06-30 08:10:00,
2013-06-30 04:15:00,75.8,43.8,29.83,ESE,112,5.0,12.0,32,0.00,,,0.00,WeatherCatV1.02B3,2013-06-30 08:15:00,
2013-06-30 04:20:00,75.8,43.8,29.83,ESE,112,5.0,12.0,32,0.00,,,0.00,WeatherCatV1.02B3,2013-06-30 08:20:00,
2013-06-30 04:25:00,75.8,43.8,29.83,ESE,112,5.0,12.0,32,0.00,,,0.00,WeatherCatV1.02B3,2013-06-30 08:25:00,
2013-06-30 04:30:00,75.6,43.6,29.82,ESE,112,5.0,13.0,32,0.00,,,0.00,WeatherCatV1.02B3,2013-06-30 08:30:00,
2013-06-30 04:35:00,75.6,43.6,29.82,ESE,112,5.0,13.0,32,0.00,,,0.00,WeatherCatV1.02B3,2013-06-30 08:35:00,
2013-06-30 04:40:00,75.6,43.6,29.82,ESE,112,5.0,13.0,32,0.00,,,0.00,WeatherCatV1.02B3,2013-06-30 08:40:00,
2013-06-30 04:45:00,75.6,43.6,29.82,ESE,112,5.0,13.0,32,0.00,,,0.00,WeatherCatV1.02B3,2013-06-30 08:45:00,
2013-06-30 04:50:00,75.6,43.6,29.82,ESE,112,5.0,13.0,32,0.00,,,0.00,WeatherCatV1.02B3,2013-06-30 08:50:00,
2013-06-30 04:55:00,75.6,43.6,29.82,ESE,112,5.0,13.0,32,0.00,,,0.00,WeatherCatV1.02B3,2013-06-30 08:55:00,
2013-06-30 05:00:00,75.6,43.6,29.82,ESE,112,5.0,13.0,32,0.00,,,0.00,WeatherCatV1.02B3,2013-06-30 09:00:00,
2013-06-30 05:05:00,75.7,43.7,29.83,ESE,112,6.0,13.0,32,0.00,,,0.00,WeatherCatV1.02B3,2013-06-30 09:05:00,
2013-06-30 05:10:00,75.7,43.7,29.83,ESE,112,6.0,13.0,32,0.00,,,0.00,WeatherCatV1.02B3,2013-06-30 09:10:00,
2013-06-30 05:15:00,75.7,43.7,29.83,ESE,112,6.0,13.0,32,0.00,,,0.00,WeatherCatV1.02B3,2013-06-30 09:15:00,
2013-06-30 05:20:00,75.7,43.7,29.83,ESE,112,6.0,13.0,32,0.00,,,0.00,WeatherCatV1.02B3,2013-06-30 09:20:00,
2013-06-30 05:25:00,75.7,43.7,29.83,ESE,112,6.0,13.0,32,0.00,,,0.00,WeatherCatV1.02B3,2013-06-30 09:25:00,
2013-06-30 05:30:00,75.7,43.7,29.83,ESE,112,6.0,13.0,32,0.00,,,0.00,WeatherCatV1.02B3,2013-06-30 09:30:00,
2013-06-30 05:35:00,75.9,43.9,29.83,East,90,4.0,13.0,32,0.00,,,0.00,WeatherCatV1.02B3,2013-06-30 09:35:00,
2013-06-30 05:40:00,75.9,43.9,29.83,East,90,4.0,13.0,32,0.00,,,0.00,WeatherCatV1.02B3,2013-06-30 09:40:00,
2013-06-30 05:45:00,75.9,43.9,29.83,East,90,4.0,13.0,32,0.00,,,0.00,WeatherCatV1.02B3,2013-06-30 09:45:00,
2013-06-30 05:50:00,75.9,43.9,29.83,East,90,4.0,13.0,32,0.00,,,0.00,WeatherCatV1.02B3,2013-06-30 09:50:00,
2013-06-30 05:55:00,75.9,43.9,29.83,East,90,4.0,13.0,32,0.00,,,0.00,WeatherCatV1.02B3,2013-06-30 09:55:00,
2013-06-30 06:00:00,75.8,43.8,29.83,East,90,4.0,10.0,32,0.00,,,0.00,WeatherCatV1.02B3,2013-06-30 10:00:00,
2013-06-30 06:05:00,75.8,43.8,29.83,East,90,4.0,10.0,32,0.00,,,0.00,WeatherCatV1.02B3,2013-06-30 10:05:00,
2013-06-30 06:10:00,75.8,43.8,29.83,East,90,4.0,10.0,32,0.00,,,0.00,WeatherCatV1.02B3,2013-06-30 10:10:00,
2013-06-30 06:15:00,75.8,43.8,29.83,East,90,4.0,10.0,32,0.00,,,0.00,WeatherCatV1.02B3,2013-06-30 10:15:00,
2013-06-30 06:20:00,75.8,43.8,29.83,East,90,4.0,10.0,32,0.00,,,0.00,WeatherCatV1.02B3,2013-06-30 10:20:00,
2013-06-30 06:25:00,75.8,43.8,29.83,East,90,4.0,10.0,32,0.00,,,0.00,WeatherCatV1.02B3,2013-06-30 10:25:00,
2013-06-30 06:30:00,75.8,43.8,29.83,East,90,4.0,10.0,32,0.00,,,0.00,WeatherCatV1.02B3,2013-06-30 10:30:00,
2013-06-30 06:35:00,75.7,43.7,29.84,ESE,112,5.0,15.0,32,0.00,,,0.00,WeatherCatV1.02B3,2013-06-30 10:35:00,
2013-06-30 06:40:00,75.7,43.7,29.84,ESE,112,5.0,15.0,32,0.00,,,0.00,WeatherCatV1.02B3,2013-06-30 10:40:00,
2013-06-30 06:45:00,75.7,43.7,29.84,ESE,112,5.0,15.0,32,0.00,,,0.00,WeatherCatV1.02B3,2013-06-30 10:45:00,
2013-06-30 06:50:00,75.7,43.7,29.84,ESE,112,5.0,15.0,32,0.00,,,0.00,WeatherCatV1.02B3,2013-06-30 10:50:00,
2013-06-30 06:55:00,75.7,43.7,29.84,ESE,112,5.0,15.0,32,0.00,,,0.00,WeatherCatV1.02B3,2013-06-30 10:55:00,
2013-06-30 07:00:00,75.7,43.7,29.84,ESE,112,5.0,15.0,32,0.00,,,0.00,WeatherCatV1.02B3,2013-06-30 11:00:00,
2013-06-30 07:05:00,75.8,43.8,29.84,East,90,5.0,12.0,32,0.00,,,0.00,WeatherCatV1.02B3,2013-06-30 11:05:00,
2013-06-30 07:10:00,75.8,43.8,29.84,East,90,5.0,12.0,32,0.00,,,0.00,WeatherCatV1.02B3,2013-06-30 11:10:00,
2013-06-30 07:15:00,75.8,43.8,29.84,East,90,5.0,12.0,32,0.00,,,0.00,WeatherCatV1.02B3,2013-06-30 11:15:00,
2013-06-30 07:20:00,75.8,43.8,29.84,East,90,5.0,12.0,32,0.00,,,0.00,WeatherCatV1.02B3,2013-06-30 11:20:00,
2013-06-30 07:25:00,75.8,43.8,29.84,East,90,5.0,12.0,32,0.00,,,0.00,WeatherCatV1.02B3,2013-06-30 11:25:00,
2013-06-30 07:30:00,75.8,43.8,29.84,East,90,5.0,12.0,32,0.00,,,0.00,WeatherCatV1.02B3,2013-06-30 11:30:00,
2013-06-30 07:35:00,76.3,43.4,29.85,ESE,112,4.0,13.0,31,0.00,,,0.00,WeatherCatV1.02B3,2013-06-30 11:35:00,
2013-06-30 07:40:00,76.3,43.4,29.85,ESE,112,4.0,13.0,31,0.00,,,0.00,WeatherCatV1.02B3,2013-06-30 11:40:00,
2013-06-30 07:45:00,76.3,43.4,29.85,ESE,112,4.0,13.0,31,0.00,,,0.00,WeatherCatV1.02B3,2013-06-30 11:45:00,
2013-06-30 07:50:00,76.3,43.4,29.85,ESE,112,4.0,13.0,31,0.00,,,0.00,WeatherCatV1.02B3,2013-06-30 11:50:00,
2013-06-30 07:55:00,76.3,43.4,29.85,ESE,112,4.0,13.0,31,0.00,,,0.00,WeatherCatV1.02B3,2013-06-30 11:55:00,
2013-06-30 08:00:00,76.9,43.9,29.86,ESE,112,6.0,13.0,31,0.00,,,0.00,WeatherCatV1.02B3,2013-06-30 12:00:00,
2013-06-30 08:05:00,76.9,43.9,29.86,ESE,112,6.0,13.0,31,0.00,,,0.00,WeatherCatV1.02B3,2013-06-30 12:05:00,
2013-06-30 08:10:00,76.9,43.9,29.86,ESE,112,6.0,13.0,31,0.00,,,0.00,WeatherCatV1.02B3,2013-06-30 12:10:00,
2013-06-30 08:15:00,76.9,43.9,29.86,ESE,112,6.0,13.0,31,0.00,,,0.00,WeatherCatV1.02B3,2013-06-30 12:15:00,
2013-06-30 08:20:00,76.9,43.9,29.86,ESE,112,6.0,13.0,31,0.00,,,0.00,WeatherCatV1.02B3,2013-06-30 12:20:00,
2013-06-30 08:25:00,76.9,43.9,29.86,ESE,112,6.0,13.0,31,0.00,,,0.00,WeatherCatV1.02B3,2013-06-30 12:25:00,
2013-06-30 08:30:00,76.9,43.9,29.86,ESE,112,6.0,13.0,31,0.00,,,0.00,WeatherCatV1.02B3,2013-06-30 12:30:00,
2013-06-30 08:35:00,78.0,44.9,29.86,ESE,112,6.0,13.0,31,0.00,,,0.00,WeatherCatV1.02B3,2013-06-30 12:35:00,
2013-06-30 08:40:00,78.0,44.9,29.86,ESE,112,6.0,13.0,31,0.00,,,0.00,WeatherCatV1.02B3,2013-06-30 12:40:00,
2013-06-30 08:45:00,78.0,44.9,29.86,ESE,112,6.0,13.0,31,0.00,,,0.00,WeatherCatV1.02B3,2013-06-30 12:45:00,
2013-06-30 08:50:00,78.0,44.9,29.86,ESE,112,6.0,13.0,31,0.00,,,0.00,WeatherCatV1.02B3,2013-06-30 12:50:00,
2013-06-30 08:55:00,78.0,44.9,29.86,ESE,112,6.0,13.0,31,0.00,,,0.00,WeatherCatV1.02B3,2013-06-30 12:55:00,
2013-06-30 09:00:00,78.0,44.9,29.86,ESE,112,6.0,13.0,31,0.00,,,0.00,WeatherCatV1.02B3,2013-06-30 13:00:00,
2013-06-30 09:05:00,79.9,46.5,29.87,ESE,112,5.0,14.0,31,0.00,,,0.00,WeatherCatV1.02B3,2013-06-30 13:05:00,
2013-06-30 09:10:00,79.9,46.5,29.87,ESE,112,5.0,14.0,31,0.00,,,0.00,WeatherCatV1.02B3,2013-06-30 13:10:00,
2013-06-30 09:15:00,79.9,46.5,29.87,ESE,112,5.0,14.0,31,0.00,,,0.00,WeatherCatV1.02B3,2013-06-30 13:15:00,
2013-06-30 09:20:00,79.9,46.5,29.87,ESE,112,5.0,14.0,31,0.00,,,0.00,WeatherCatV1.02B3,2013-06-30 13:20:00,
2013-06-30 09:25:00,79.9,46.5,29.87,ESE,112,5.0,14.0,31,0.00,,,0.00,WeatherCatV1.02B3,2013-06-30 13:25:00,
2013-06-30 09:30:00,82.0,50.0,29.87,ESE,112,7.0,15.0,33,0.00,,,0.00,WeatherCatV1.02B3,2013-06-30 13:30:00,
2013-06-30 09:35:00,82.0,50.0,29.87,ESE,112,7.0,15.0,33,0.00,,,0.00,WeatherCatV1.02B3,2013-06-30 13:35:00,
2013-06-30 09:40:00,82.0,50.0,29.87,ESE,112,7.0,15.0,33,0.00,,,0.00,WeatherCatV1.02B3,2013-06-30 13:40:00,
2013-06-30 09:45:00,82.0,50.0,29.87,ESE,112,7.0,15.0,33,0.00,,,0.00,WeatherCatV1.02B3,2013-06-30 13:45:00,
2013-06-30 09:50:00,82.0,50.0,29.87,ESE,112,7.0,15.0,33,0.00,,,0.00,WeatherCatV1.02B3,2013-06-30 13:50:00,
2013-06-30 09:55:00,82.0,50.0,29.87,ESE,112,7.0,15.0,33,0.00,,,0.00,WeatherCatV1.02B3,2013-06-30 13:55:00,
2013-06-30 10:00:00,82.0,50.0,29.87,ESE,112,7.0,15.0,33,0.00,,,0.00,WeatherCatV1.02B3,2013-06-30 14:00:00,
2013-06-30 10:05:00,84.0,57.1,29.87,ESE,112,7.0,17.0,40,0.00,,,0.00,WeatherCatV1.02B3,2013-06-30 14:05:00,
2013-06-30 10:10:00,84.0,57.1,29.87,ESE,112,7.0,17.0,40,0.00,,,0.00,WeatherCatV1.02B3,2013-06-30 14:10:00,
2013-06-30 10:15:00,84.0,57.1,29.87,ESE,112,7.0,17.0,40,0.00,,,0.00,WeatherCatV1.02B3,2013-06-30 14:15:00,
2013-06-30 10:20:00,84.0,57.1,29.87,ESE,112,7.0,17.0,40,0.00,,,0.00,WeatherCatV1.02B3,2013-06-30 14:20:00,
2013-06-30 10:25:00,84.0,57.1,29.87,ESE,112,7.0,17.0,40,0.00,,,0.00,WeatherCatV1.02B3,2013-06-30 14:25:00,
2013-06-30 10:30:00,84.0,57.1,29.87,ESE,112,7.0,17.0,40,0.00,,,0.00,WeatherCatV1.02B3,2013-06-30 14:30:00,
2013-06-30 10:35:00,85.5,60.4,29.86,ESE,112,6.0,15.0,43,0.00,,,0.00,WeatherCatV1.02B3,2013-06-30 14:35:00,
2013-06-30 10:40:00,85.5,60.4,29.86,ESE,112,6.0,15.0,43,0.00,,,0.00,WeatherCatV1.02B3,2013-06-30 14:40:00,
2013-06-30 10:45:00,85.5,60.4,29.86,ESE,112,6.0,15.0,43,0.00,,,0.00,WeatherCatV1.02B3,2013-06-30 14:45:00,
2013-06-30 10:50:00,85.5,60.4,29.86,ESE,112,6.0,15.0,43,0.00,,,0.00,WeatherCatV1.02B3,2013-06-30 14:50:00,
2013-06-30 10:55:00,85.5,60.4,29.86,ESE,112,6.0,15.0,43,0.00,,,0.00,WeatherCatV1.02B3,2013-06-30 14:55:00,
2013-06-30 11:00:00,85.5,60.4,29.86,ESE,112,6.0,15.0,43,0.00,,,0.00,WeatherCatV1.02B3,2013-06-30 15:00:00,
2013-06-30 11:05:00,85.5,64.7,29.85,ESE,112,7.0,16.0,50,0.00,,,0.00,WeatherCatV1.02B3,2013-06-30 15:05:00,
2013-06-30 11:10:00,85.5,64.7,29.85,ESE,112,7.0,16.0,50,0.00,,,0.00,WeatherCatV1.02B3,2013-06-30 15:10:00,
2013-06-30 11:15:00,85.5,64.7,29.85,ESE,112,7.0,16.0,50,0.00,,,0.00,WeatherCatV1.02B3,2013-06-30 15:15:00,
2013-06-30 11:20:00,85.5,64.7,29.85,ESE,112,7.0,16.0,50,0.00,,,0.00,WeatherCatV1.02B3,2013-06-30 15:20:00,
2013-06-30 11:25:00,85.5,64.7,29.85,ESE,112,7.0,16.0,50,0.00,,,0.00,WeatherCatV1.02B3,2013-06-30 15:25:00,
2013-06-30 11:30:00,85.5,64.7,29.85,ESE,112,7.0,16.0,50,0.00,,,0.00,WeatherCatV1.02B3,2013-06-30 15:30:00,
2013-06-30 11:35:00,88.2,69.4,29.85,ESE,112,8.0,19.0,54,0.00,,,0.00,WeatherCatV1.02B3,2013-06-30 15:35:00,
2013-06-30 11:40:00,88.2,69.4,29.85,ESE,112,8.0,19.0,54,0.00,,,0.00,WeatherCatV1.02B3,2013-06-30 15:40:00,
2013-06-30 11:45:00,88.2,69.4,29.85,ESE,112,8.0,19.0,54,0.00,,,0.00,WeatherCatV1.02B3,2013-06-30 15:45:00,
2013-06-30 11:50:00,88.2,69.4,29.85,ESE,112,8.0,19.0,54,0.00,,,0.00,WeatherCatV1.02B3,2013-06-30 15:50:00,
2013-06-30 11:55:00,88.2,69.4,29.85,ESE,112,8.0,19.0,54,0.00,,,0.00,WeatherCatV1.02B3,2013-06-30 15:55:00,
2013-06-30 12:00:00,88.2,69.4,29.85,ESE,112,8.0,19.0,54,0.00,,,0.00,WeatherCatV1.02B3,2013-06-30 16:00:00,
2013-06-30 12:05:00,88.1,69.3,29.85,East,87,8.0,8.0,54,0.00,,,0.00,WeatherCatV1.02B3,2013-06-30 16:05:00,
2013-06-30 12:10:00,88.6,70.9,29.85,SE,126,6.0,10.0,56,0.00,,,0.00,WeatherCatV1.02B3,2013-06-30 16:10:00,
2013-06-30 12:15:00,88.1,68.8,29.85,East,92,7.0,14.0,53,0.00,,,0.00,WeatherCatV1.02B3,2013-06-30 16:15:00,
2013-06-30 12:28:00,86.1,65.3,29.86,East,100,8.0,13.0,50,0.00,,,0.00,WeatherCatV1.02B3,2013-06-30 16:28:00,
2013-06-30 12:33:00,82.6,57.2,29.85,East,79,7.0,15.0,42,0.36,,,0.03,WeatherCatV1.02B3,2013-06-30 16:33:00,
2013-06-30 12:38:00,81.3,55.3,29.85,ESE,119,9.0,10.0,41,0.11,,,0.03,WeatherCatV1.02B3,2013-06-30 16:38:00,
2013-06-30 12:43:00,81.2,51.7,29.85,ESE,123,10.0,13.0,36,0.06,,,0.03,WeatherCatV1.02B3,2013-06-30 16:43:00,
2013-06-30 12:48:00,80.3,52.4,29.87,SSE,150,6.0,17.0,38,2.15,,,0.11,WeatherCatV1.02B3,2013-06-30 16:48:00,
2013-06-30 12:53:00,79.5,50.2,29.86,SSE,152,3.0,5.0,36,0.17,,,0.15,WeatherCatV1.02B3,2013-06-30 16:53:00,
2013-06-30 12:58:00,79.2,48.4,29.86,ESE,109,5.0,7.0,34,0.07,,,0.15,WeatherCatV1.02B3,2013-06-30 16:58:00,
2013-06-30 13:03:00,79.0,47.4,29.85,ESE,111,4.0,6.0,33,0.04,,,0.15,WeatherCatV1.02B3,2013-06-30 17:03:00,
2013-06-30 13:08:00,78.9,46.5,29.85,ESE,111,3.0,5.0,32,0.00,,,0.15,WeatherCatV1.02B3,2013-06-30 17:08:00,
2013-06-30 13:13:00,78.8,46.4,29.85,East,89,6.0,13.0,32,0.00,,,0.15,WeatherCatV1.02B3,2013-06-30 17:13:00,
2013-06-30 13:18:00,78.7,46.3,29.85,ESE,115,4.0,9.0,32,0.00,,,0.15,WeatherCatV1.02B3,2013-06-30 17:18:00,
2013-06-30 13:23:00,78.6,46.3,29.86,ESE,115,7.0,7.0,32,0.00,,,0.15,WeatherCatV1.02B3,2013-06-30 17:23:00,
2013-06-30 13:28:00,78.5,45.3,29.86,East,97,5.0,7.0,31,0.00,,,0.15,WeatherCatV1.02B3,2013-06-30 17:28:00,
2013-06-30 13:33:00,78.5,45.3,29.85,East,97,0.0,3.0,31,0.00,,,0.15,WeatherCatV1.02B3,2013-06-30 17:33:00,
2013-06-30 13:38:00,78.7,45.5,29.85,East,97,0.0,3.0,31,0.00,,,0.15,WeatherCatV1.02B3,2013-06-30 17:38:00,
2013-06-30 13:43:00,78.6,44.6,29.86,East,97,0.0,0.0,30,0.00,,,0.15,WeatherCatV1.02B3,2013-06-30 17:43:00,
2013-06-30 13:48:00,78.4,45.2,29.86,East,97,0.0,0.0,31,0.00,,,0.15,WeatherCatV1.02B3,2013-06-30 17:48:00,
2013-06-30 13:53:00,78.5,44.5,29.86,East,97,0.0,0.0,30,0.00,,,0.15,WeatherCatV1.02B3,2013-06-30 17:53:00,
2013-06-30 13:58:00,78.7,44.6,29.85,East,97,1.0,2.0,30,0.00,,,0.15,WeatherCatV1.02B3,2013-06-30 17:58:00,
2013-06-30 14:03:00,79.1,45.0,29.86,East,97,0.0,1.0,30,0.00,,,0.15,WeatherCatV1.02B3,2013-06-30 18:03:00,
2013-06-30 14:08:00,79.6,45.4,29.85,East,97,0.0,0.0,30,0.00,,,0.15,WeatherCatV1.02B3,2013-06-30 18:08:00,
2013-06-30 14:13:00,80.4,46.1,29.85,East,97,0.0,1.0,30,0.00,,,0.15,WeatherCatV1.02B3,2013-06-30 18:13:00,
2013-06-30 14:18:00,81.1,46.7,29.84,East,97,0.0,4.0,30,0.00,,,0.15,WeatherCatV1.02B3,2013-06-30 18:18:00,
2013-06-30 14:23:00,82.3,47.7,29.84,East,97,3.0,3.0,30,0.00,,,0.15,WeatherCatV1.02B3,2013-06-30 18:23:00,
2013-06-30 14:28:00,83.3,50.3,29.84,East,97,1.0,6.0,32,0.00,,,0.15,WeatherCatV1.02B3,2013-06-30 18:28:00,
2013-06-30 14:33:00,83.7,53.1,29.84,East,97,0.0,3.0,35,0.00,,,0.15,WeatherCatV1.02B3,2013-06-30 18:33:00,
2013-06-30 14:38:00,83.9,53.3,29.84,East,97,1.0,4.0,35,0.00,,,0.15,WeatherCatV1.02B3,2013-06-30 18:38:00,
2013-06-30 14:43:00,83.9,54.8,29.84,East,97,0.0,0.0,37,0.00,,,0.15,WeatherCatV1.02B3,2013-06-30 18:43:00,
2013-06-30 14:48:00,83.8,55.5,29.86,SSE,166,19.0,19.0,38,0.00,,,0.15,WeatherCatV1.02B3,2013-06-30 18:48:00,
2013-06-30 14:53:00,80.7,60.3,29.86,SE,143,4.0,25.0,50,0.00,,,0.16,WeatherCatV1.02B3,2013-06-30 18:53:00,
2013-06-30 14:58:00,79.4,56.8,29.86,SW,218,6.0,14.0,46,0.38,,,0.22,WeatherCatV1.02B3,2013-06-30 18:58:00,
2013-06-30 15:03:00,78.4,54.7,29.85,South,185,3.0,6.0,44,0.10,,,0.22,WeatherCatV1.02B3,2013-06-30 19:03:00,
2013-06-30 15:08:00,78.0,53.0,29.86,SE,144,5.0,6.0,42,0.05,,,0.22,WeatherCatV1.02B3,2013-06-30 19:08:00,
2013-06-30 15:13:00,77.6,51.3,29.86,SE,133,4.0,6.0,40,0.04,,,0.22,WeatherCatV1.02B3,2013-06-30 19:13:00,
2013-06-30 15:18:00,77.3,49.7,29.85,ESE,121,6.0,7.0,38,0.00,,,0.22,WeatherCatV1.02B3,2013-06-30 19:18:00,
2013-06-30 15:23:00,77.0,48.7,29.85,ESE,115,2.0,5.0,37,0.00,,,0.23,WeatherCatV1.02B3,2013-06-30 19:23:00,
2013-06-30 15:28:00,76.8,46.3,29.87,ESE,115,2.0,2.0,34,0.00,,,0.23,WeatherCatV1.02B3,2013-06-30 19:28:00,
2013-06-30 15:33:00,76.6,45.3,29.87,ESE,114,4.0,5.0,33,0.00,,,0.23,WeatherCatV1.02B3,2013-06-30 19:33:00,
2013-06-30 15:38:00,76.3,44.3,29.87,East,94,0.0,3.0,32,0.00,,,0.23,WeatherCatV1.02B3,2013-06-30 19:38:00,
2013-06-30 15:43:00,76.3,43.4,29.87,East,94,2.0,5.0,31,0.00,,,0.23,WeatherCatV1.02B3,2013-06-30 19:43:00,
2013-06-30 15:48:00,76.3,43.4,29.86,North,10,0.0,3.0,31,0.00,,,0.23,WeatherCatV1.02B3,2013-06-30 19:48:00,
2013-06-30 15:53:00,76.4,43.5,29.87,North,10,0.0,0.0,31,0.00,,,0.23,WeatherCatV1.02B3,2013-06-30 19:53:00,
2013-06-30 15:58:00,76.6,43.7,29.87,NNE,12,0.0,4.0,31,0.00,,,0.23,WeatherCatV1.02B3,2013-06-30 19:58:00,
2013-06-30 16:03:00,76.8,43.9,29.87,NNE,15,0.0,6.0,31,0.00,,,0.23,WeatherCatV1.02B3,2013-06-30 20:03:00,
2013-06-30 16:08:00,76.9,43.9,29.87,NNE,21,0.0,1.0,31,0.00,,,0.23,WeatherCatV1.02B3,2013-06-30 20:08:00,
2013-06-30 16:13:00,76.9,43.9,29.88,ENE,73,0.0,0.0,31,0.00,,,0.23,WeatherCatV1.02B3,2013-06-30 20:13:00,
2013-06-30 16:18:00,76.8,43.9,29.87,NE,51,4.0,5.0,31,0.00,,,0.23,WeatherCatV1.02B3,2013-06-30 20:18:00,
2013-06-30 16:23:00,76.9,43.9,29.87,NE,51,0.0,6.0,31,0.00,,,0.24,WeatherCatV1.02B3,2013-06-30 20:23:00,
2013-06-30 16:28:00,76.9,43.9,29.87,NE,52,3.0,4.0,31,0.00,,,0.24,WeatherCatV1.02B3,2013-06-30 20:28:00,
2013-06-30 16:33:00,77.0,44.0,29.87,East,81,5.0,7.0,31,0.00,,,0.24,WeatherCatV1.02B3,2013-06-30 20:33:00,
2013-06-30 16:38:00,76.9,43.9,29.87,East,81,2.0,3.0,31,0.00,,,0.24,WeatherCatV1.02B3,2013-06-30 20:38:00,
2013-06-30 16:43:00,76.9,43.9,29.87,ENE,61,3.0,6.0,31,0.00,,,0.25,WeatherCatV1.02B3,2013-06-30 20:43:00,
2013-06-30 16:48:00,76.9,43.9,29.88,NE,54,6.0,7.0,31,0.00,,,0.25,WeatherCatV1.02B3,2013-06-30 20:48:00,
2013-06-30 16:53:00,77.0,44.0,29.88,NE,56,3.0,5.0,31,0.00,,,0.25,WeatherCatV1.02B3,2013-06-30 20:53:00,
2013-06-30 16:58:00,77.0,44.0,29.87,NE,56,1.0,1.0,31,0.00,,,0.25,WeatherCatV1.02B3,2013-06-30 20:58:00,
2013-06-30 17:03:00,77.1,44.1,29.87,ENE,64,7.0,7.0,31,0.00,,,0.25,WeatherCatV1.02B3,2013-06-30 21:03:00,
2013-06-30 17:08:00,77.2,44.2,29.87,ENE,62,6.0,11.0,31,0.00,,,0.25,WeatherCatV1.02B3,2013-06-30 21:08:00,
2013-06-30 17:13:00,77.2,44.2,29.87,NE,46,5.0,10.0,31,0.00,,,0.25,WeatherCatV1.02B3,2013-06-30 21:13:00,
2013-06-30 17:18:00,77.2,44.2,29.87,East,81,4.0,9.0,31,0.00,,,0.25,WeatherCatV1.02B3,2013-06-30 21:18:00,
2013-06-30 17:23:00,77.2,44.2,29.86,ENE,68,4.0,7.0,31,0.00,,,0.25,WeatherCatV1.02B3,2013-06-30 21:23:00,
2013-06-30 17:28:00,77.3,44.3,29.86,ENE,77,5.0,7.0,31,0.00,,,0.25,WeatherCatV1.02B3,2013-06-30 21:28:00,
2013-06-30 17:33:00,77.3,44.3,29.86,ENE,58,7.0,7.0,31,0.00,,,0.25,WeatherCatV1.02B3,2013-06-30 21:33:00,
2013-06-30 17:38:00,77.3,44.3,29.86,NE,50,0.0,5.0,31,0.00,,,0.25,WeatherCatV1.02B3,2013-06-30 21:38:00,
2013-06-30 17:43:00,77.3,44.3,29.85,NE,51,4.0,5.0,31,0.00,,,0.25,WeatherCatV1.02B3,2013-06-30 21:43:00,
2013-06-30 17:48:00,77.2,44.2,29.85,NE,51,4.0,4.0,31,0.00,,,0.25,WeatherCatV1.02B3,2013-06-30 21:48:00,
2013-06-30 17:53:00,77.2,44.2,29.85,NE,51,2.0,9.0,31,0.00,,,0.26,WeatherCatV1.02B3,2013-06-30 21:53:00,
2013-06-30 17:58:00,77.1,44.1,29.85,NE,54,5.0,6.0,31,0.00,,,0.26,WeatherCatV1.02B3,2013-06-30 21:58:00,
2013-06-30 18:03:00,77.0,44.0,29.86,ENE,59,0.0,4.0,31,0.00,,,0.26,WeatherCatV1.02B3,2013-06-30 22:03:00,
2013-06-30 18:08:00,76.9,43.9,29.86,ENE,59,3.0,4.0,31,0.00,,,0.26,WeatherCatV1.02B3,2013-06-30 22:08:00,
2013-06-30 18:13:00,76.8,43.9,29.86,East,85,5.0,10.0,31,0.00,,,0.26,WeatherCatV1.02B3,2013-06-30 22:13:00,
2013-06-30 18:18:00,76.6,43.7,29.86,NE,47,1.0,7.0,31,0.00,,,0.26,WeatherCatV1.02B3,2013-06-30 22:18:00,
2013-06-30 18:23:00,76.6,43.7,29.87,NE,48,2.0,5.0,31,0.00,,,0.26,WeatherCatV1.02B3,2013-06-30 22:23:00,
2013-06-30 18:28:00,76.5,43.6,29.86,NE,48,0.0,3.0,31,0.00,,,0.26,WeatherCatV1.02B3,2013-06-30 22:28:00,
2013-06-30 18:33:00,76.5,43.6,29.86,NE,48,3.0,5.0,31,0.00,,,0.26,WeatherCatV1.02B3,2013-06-30 22:33:00,
2013-06-30 18:38:00,76.4,43.5,29.86,NE,48,0.0,0.0,31,0.00,,,0.26,WeatherCatV1.02B3,2013-06-30 22:38:00,
2013-06-30 18:43:00,76.4,43.5,29.86,NE,48,2.0,4.0,31,0.00,,,0.26,WeatherCatV1.02B3,2013-06-30 22:43:00,
2013-06-30 18:48:00,76.4,43.5,29.85,NE,48,0.0,5.0,31,0.00,,,0.26,WeatherCatV1.02B3,2013-06-30 22:48:00,
2013-06-30 18:53:00,76.3,43.4,29.85,NE,48,3.0,4.0,31,0.00,,,0.26,WeatherCatV1.02B3,2013-06-30 22:53:00,
2013-06-30 18:58:00,76.2,43.3,29.85,NE,48,6.0,9.0,31,0.00,,,0.26,WeatherCatV1.02B3,2013-06-30 22:58:00,
2013-06-30 19:03:00,76.0,44.0,29.85,NE,44,5.0,11.0,32,0.00,,,0.26,WeatherCatV1.02B3,2013-06-30 23:03:00,
2013-06-30 19:08:00,75.9,43.9,29.85,NE,42,9.0,12.0,32,0.00,,,0.26,WeatherCatV1.02B3,2013-06-30 23:08:00,
2013-06-30 19:13:00,75.8,43.8,29.85,East,84,5.0,10.0,32,0.00,,,0.26,WeatherCatV1.02B3,2013-06-30 23:13:00,
2013-06-30 19:18:00,75.7,43.7,29.85,ENE,67,0.0,9.0,32,0.00,,,0.26,WeatherCatV1.02B3,2013-06-30 23:18:00,
2013-06-30 19:23:00,75.7,43.7,29.85,NE,46,4.0,10.0,32,0.00,,,0.26,WeatherCatV1.02B3,2013-06-30 23:23:00,
2013-06-30 19:28:00,75.7,43.7,29.85,NE,40,3.0,9.0,32,0.00,,,0.26,WeatherCatV1.02B3,2013-06-30 23:28:00,
2013-06-30 19:33:00,75.7,43.7,29.85,NE,44,4.0,11.0,32,0.00,,,0.26,WeatherCatV1.02B3,2013-06-30 23:33:00,
2013-06-30 19:38:00,75.7,43.7,29.85,NE,34,6.0,10.0,32,0.00,,,0.26,WeatherCatV1.02B3,2013-06-30 23:38:00,
2013-06-30 19:43:00,75.7,43.7,29.85,NE,40,3.0,12.0,32,0.00,,,0.26,WeatherCatV1.02B3,2013-06-30 23:43:00,
2013-06-30 19:48:00,75.7,43.7,29.85,NNE,31,5.0,17.0,32,0.00,,,0.26,WeatherCatV1.02B3,2013-06-30 23:48:00,
2013-06-30 19:53:00,75.7,43.7,29.84,ENE,60,3.0,12.0,32,0.00,,,0.26,WeatherCatV1.02B3,2013-06-30 23:53:00,
2013-06-30 19:58:00,75.6,43.6,29.85,NE,34,8.0,11.0,32,0.00,,,0.26,WeatherCatV1.02B3,2013-06-30 23:58:00,
2013-06-30 20:03:00,75.6,43.6,29.86,ENE,58,2.0,7.0,32,0.00,,,0.26,WeatherCatV1.02B3,2013-07-01 00:03:00,
2013-06-30 20:08:00,75.5,43.6,29.87,ENE,68,4.0,12.0,32,0.00,,,0.26,WeatherCatV1.02B3,2013-07-01 00:08:00,
2013-06-30 20:13:00,75.4,43.5,29.87,ENE,68,0.0,3.0,32,0.00,,,0.26,WeatherCatV1.02B3,2013-07-01 00:13:00,
2013-06-30 20:18:00,75.4,43.5,29.87,East,90,4.0,11.0,32,0.00,,,0.26,WeatherCatV1.02B3,2013-07-01 00:18:00,
2013-06-30 20:23:00,75.3,43.4,29.87,NE,51,5.0,7.0,32,0.00,,,0.26,WeatherCatV1.02B3,2013-07-01 00:23:00,
2013-06-30 20:28:00,75.3,43.4,29.86,NE,45,0.0,5.0,32,0.00,,,0.26,WeatherCatV1.02B3,2013-07-01 00:28:00,
2013-06-30 20:33:00,75.3,43.4,29.86,ENE,64,6.0,7.0,32,0.00,,,0.26,WeatherCatV1.02B3,2013-07-01 00:33:00,
2013-06-30 20:38:00,75.3,43.4,29.86,NE,41,0.0,7.0,32,0.00,,,0.26,WeatherCatV1.02B3,2013-07-01 00:38:00,
2013-06-30 20:43:00,75.2,43.3,29.87,ENE,62,4.0,10.0,32,0.00,,,0.26,WeatherCatV1.02B3,2013-07-01 00:43:00,
2013-06-30 20:48:00,75.2,43.3,29.87,ENE,65,10.0,10.0,32,0.00,,,0.26,WeatherCatV1.02B3,2013-07-01 00:48:00,
2013-06-30 20:53:00,75.2,43.3,29.87,ENE,74,4.0,7.0,32,0.00,,,0.26,WeatherCatV1.02B3,2013-07-01 00:53:00,
2013-06-30 20:58:00,75.1,43.2,29.87,East,90,5.0,10.0,32,0.00,,,0.26,WeatherCatV1.02B3,2013-07-01 00:58:00,
2013-06-30 21:03:00,75.1,43.2,29.87,NE,42,2.0,4.0,32,0.00,,,0.26,WeatherCatV1.02B3,2013-07-01 01:03:00,
2013-06-30 21:08:00,75.2,43.3,29.87,NE,55,12.0,14.0,32,0.00,,,0.26,WeatherCatV1.02B3,2013-07-01 01:08:00,
2013-06-30 21:13:00,75.1,43.2,29.87,ENE,58,4.0,12.0,32,0.00,,,0.26,WeatherCatV1.02B3,2013-07-01 01:13:00,
2013-06-30 21:18:00,75.1,43.2,29.87,East,85,2.0,5.0,32,0.00,,,0.26,WeatherCatV1.02B3,2013-07-01 01:18:00,
2013-06-30 21:23:00,75.0,43.1,29.87,East,83,5.0,7.0,32,0.00,,,0.26,WeatherCatV1.02B3,2013-07-01 01:23:00,
2013-06-30 21:28:00,75.0,43.1,29.86,ENE,67,9.0,9.0,32,0.00,,,0.26,WeatherCatV1.02B3,2013-07-01 01:28:00,
2013-06-30 21:33:00,75.0,43.1,29.86,East,82,7.0,11.0,32,0.00,,,0.26,WeatherCatV1.02B3,2013-07-01 01:33:00,
2013-06-30 21:38:00,74.9,43.0,29.86,East,83,3.0,12.0,32,0.00,,,0.26,WeatherCatV1.02B3,2013-07-01 01:38:00,
2013-06-30 21:43:00,74.9,43.0,29.86,ESE,102,6.0,10.0,32,0.00,,,0.26,WeatherCatV1.02B3,2013-07-01 01:43:00,
2013-06-30 21:48:00,75.0,43.1,29.86,East,97,6.0,14.0,32,0.00,,,0.26,WeatherCatV1.02B3,2013-07-01 01:48:00,
2013-06-30 21:53:00,75.0,43.1,29.86,East,94,3.0,10.0,32,0.00,,,0.26,WeatherCatV1.02B3,2013-07-01 01:53:00,
2013-06-30 21:58:00,75.0,43.1,29.86,East,79,3.0,6.0,32,0.00,,,0.26,WeatherCatV1.02B3,2013-07-01 01:58:00,
2013-06-30 22:03:00,75.1,43.2,29.87,ENE,77,1.0,7.0,32,0.00,,,0.26,WeatherCatV1.02B3,2013-07-01 02:03:00,
2013-06-30 22:08:00,75.1,43.2,29.88,ESE,106,5.0,7.0,32,0.00,,,0.26,WeatherCatV1.02B3,2013-07-01 02:08:00,
2013-06-30 22:13:00,75.2,43.3,29.88,ESE,112,7.0,11.0,32,0.00,,,0.26,WeatherCatV1.02B3,2013-07-01 02:13:00,
2013-06-30 22:18:00,75.2,43.3,29.88,ESE,115,7.0,11.0,32,0.00,,,0.26,WeatherCatV1.02B3,2013-07-01 02:18:00,
2013-06-30 22:23:00,75.2,43.3,29.89,ESE,114,5.0,9.0,32,0.00,,,0.26,WeatherCatV1.02B3,2013-07-01 02:23:00,
2013-06-30 22:28:00,75.2,43.3,29.89,ESE,105,5.0,11.0,32,0.00,,,0.26,WeatherCatV1.02B3,2013-07-01 02:28:00,
2013-06-30 22:33:00,75.1,43.2,29.89,ENE,71,7.0,14.0,32,0.00,,,0.26,WeatherCatV1.02B3,2013-07-01 02:33:00,
2013-06-30 22:38:00,75.1,43.2,29.89,NE,54,3.0,7.0,32,0.00,,,0.26,WeatherCatV1.02B3,2013-07-01 02:38:00,
2013-06-30 22:43:00,75.1,43.2,29.89,ESE,103,7.0,10.0,32,0.00,,,0.26,WeatherCatV1.02B3,2013-07-01 02:43:00,
2013-06-30 22:48:00,75.0,43.1,29.89,East,90,4.0,9.0,32,0.00,,,0.26,WeatherCatV1.02B3,2013-07-01 02:48:00,
2013-06-30 22:53:00,75.1,43.2,29.89,ESE,104,5.0,10.0,32,0.00,,,0.26,WeatherCatV1.02B3,2013-07-01 02:53:00,
2013-06-30 22:58:00,75.1,43.2,29.89,ESE,104,6.0,9.0,32,0.00,,,0.26,WeatherCatV1.02B3,2013-07-01 02:58:00,
2013-06-30 23:03:00,75.1,43.2,29.89,East,101,10.0,13.0,32,0.00,,,0.26,WeatherCatV1.02B3,2013-07-01 03:03:00,
2013-06-30 23:08:00,75.0,43.1,29.89,ESE,110,5.0,9.0,32,0.00,,,0.26,WeatherCatV1.02B3,2013-07-01 03:08:00,
2013-06-30 23:13:00,75.0,43.1,29.89,East,101,4.0,13.0,32,0.00,,,0.26,WeatherCatV1.02B3,2013-07-01 03:13:00,
2013-06-30 23:18:00,74.9,43.0,29.89,ESE,117,6.0,13.0,32,0.00,,,0.26,WeatherCatV1.02B3,2013-07-01 03:18:00,
2013-06-30 23:24:00,74.9,43.0,29.89,East,87,3.0,6.0,32,0.00,,,0.26,WeatherCatV1.02B3,2013-07-01 03:24:00,
2013-06-30 23:29:00,74.9,43.0,29.89,ESE,112,4.0,9.0,32,0.00,,,0.26,WeatherCatV1.02B3,2013-07-01 03:29:00,
2013-06-30 23:34:00,74.8,43.0,29.89,East,101,7.0,12.0,32,0.00,,,0.26,WeatherCatV1.02B3,2013-07-01 03:34:00,
2013-06-30 23:39:00,74.8,43.0,29.89,ESE,102,6.0,7.0,32,0.00,,,0.26,WeatherCatV1.02B3,2013-07-01 03:39:00,
2013-06-30 23:44:00,74.8,43.0,29.89,ESE,102,0.0,6.0,32,0.00,,,0.26,WeatherCatV1.02B3,2013-07-01 03:44:00,
2013-06-30 23:49:00,74.9,43.0,29.89,NE,40,10.0,13.0,32,0.00,,,0.26,WeatherCatV1.02B3,2013-07-01 03:49:00,
2013-06-30 23:54:00,74.9,43.0,29.89,East,81,11.0,16.0,32,0.00,,,0.26,WeatherCatV1.02B3,2013-07-01 03:54:00,
2013-06-30 23:59:00,74.8,43.0,29.89,ENE,63,4.0,10.0,32,0.00,,,0.26,WeatherCatV1.02B3,2013-07-01 03:59:00,